Theta_e
334 337 340 341 342 343 344 344 344 345 345 345 344 345 346 347 348 345 346 347 346 345 345 345 344 344 344 344 343 344 344 344 347 346 345 345 348 351 357 360 360 363 364 359 356 364 358 357 357 357 359 358 356 354 354 358 364 359 358 356 356 353 351 356 356 344 342 344 342 340 343 345 351 349 342 343 344 346 348 348 349 348 348 347 349
333 336 339 341 342 343 343 343 346 343 344 344 343 344 345 347 347 345 346 346 346 345 346 345 345 344 342 343 342 343 345 346 344 345 345 345 349 352 358 361 360 361 366 358 362 356 355 356 357 355 357 357 363 358 362 364 357 357 355 353 353 355 352 357 357 343 341 338 339 339 342 343 349 344 341 341 341 342 344 346 347 345 345 347 349
331 335 338 340 341 342 342 343 344 344 344 343 344 344 344 345 347 346 346 346 346 346 345 344 345 347 344 343 344 342 345 348 345 347 348 347 349 354 359 360 360 360 363 364 361 358 354 354 356 355 356 363 357 355 355 356 356 355 356 352 351 350 355 359 359 349 345 345 341 340 333 336 345 341 344 346 345 344 342 341 343 341 342 346 351
330 333 336 338 340 341 341 342 343 344 344 343 343 343 344 346 346 346 347 347 346 347 348 345 346 347 346 345 345 345 342 348 348 348 348 349 349 355 358 360 360 360 361 363 364 360 358 358 358 360 358 361 357 355 356 356 358 357 355 358 351 349 350 351 361 355 347 338 340 338 333 333 330 335 337 343 345 347 347 347 342 340 341 343 349
330 333 335 337 338 340 340 342 343 343 343 343 343 343 344 344 346 346 347 346 346 350 349 346 349 345 346 346 348 346 348 345 343 343 346 349 352 353 356 360 360 360 361 360 362 360 360 360 359 357 357 356 360 357 358 358 359 356 355 356 354 351 348 349 352 359 354 352 345 341 337 334 330 335 335 341 341 345 348 347 349 347 344 346 345
331 333 335 337 338 339 340 341 341 342 342 343 344 344 345 344 346 346 346 347 347 348 349 347 348 343 341 340 338 339 339 340 338 339 341 345 348 352 356 360 360 360 360 360 360 363 359 359 359 358 358 359 361 359 359 358 356 356 357 355 357 356 352 349 349 356 356 357 345 340 344 344 338 339 335 338 344 346 345 344 345 344 345 346 349
331 334 335 336 337 338 339 339 341 341 342 343 344 344 345 345 345 346 346 346 347 347 349 349 345 343 342 340 340 339 338 340 343 343 343 345 350 352 355 359 360 360 360 360 360 364 362 359 358 358 357 358 366 363 359 358 356 355 360 357 357 360 351 349 349 350 352 354 355 354 356 347 346 344 337 338 337 344 342 341 343 344 345 346 348
330 332 334 336 337 338 337 339 340 341 342 342 343 344 344 344 344 345 346 348 347 347 348 348 345 343 341 341 343 340 339 340 343 344 345 350 351 353 354 357 360 360 359 358 359 360 363 359 358 357 357 357 361 363 360 359 359 360 363 357 360 359 352 351 348 349 350 350 358 352 352 351 348 344 343 339 337 334 339 341 341 343 345 347 349
331 331 332 334 336 337 338 339 341 341 341 341 342 343 344 344 345 345 345 348 346 347 347 347 348 344 342 341 342 344 343 343 347 351 350 354 350 353 354 355 357 358 358 358 358 359 365 362 359 358 358 357 364 364 361 361 359 360 359 355 353 354 356 353 352 352 350 353 351 352 348 347 348 347 346 344 341 335 335 335 339 344 346 348 350
331 332 333 334 336 337 339 340 340 340 341 343 343 343 344 344 344 344 344 346 346 346 348 347 347 348 342 341 341 342 346 346 348 348 349 351 350 351 352 353 354 356 356 357 358 359 361 364 361 358 358 358 363 362 359 359 358 359 358 356 355 352 355 359 355 354 352 354 351 352 350 349 348 348 346 345 343 338 338 337 339 338 340 346 350
330 331 332 334 336 337 337 337 339 340 341 342 342 343 343 343 344 343 344 345 346 345 347 346 346 346 342 341 342 342 343 344 345 346 348 349 349 350 351 352 353 354 355 357 357 358 360 363 362 360 360 363 365 364 362 359 357 357 357 356 359 355 354 356 360 356 355 357 352 352 352 349 348 346 347 345 342 341 339 338 341 343 340 340 349
330 331 331 333 333 335 336 336 337 338 340 340 341 343 343 343 343 342 343 344 345 345 347 346 346 346 344 342 342 343 344 344 345 345 347 347 349 349 351 351 351 352 353 354 355 356 359 361 364 363 362 362 361 363 362 359 358 358 358 357 357 357 357 360 354 355 354 354 353 353 351 351 350 348 348 349 346 344 341 340 340 343 343 344 346
329 330 331 331 332 333 334 335 336 337 338 340 340 342 343 343 343 342 342 343 344 345 346 346 346 346 344 343 343 344 344 345 345 346 347 347 348 348 349 349 350 350 351 352 354 355 358 358 359 361 361 362 362 361 361 360 358 358 358 357 357 356 357 359 357 355 355 355 355 354 353 352 352 352 350 349 348 346 344 340 342 342 342 342 347
330 330 331 331 332 333 334 335 335 337 338 339 340 343 343 343 343 342 342 343 344 345 345 345 346 347 346 344 343 345 344 345 345 345 347 348 348 349 349 349 350 350 351 352 354 355 357 358 360 360 361 361 362 361 360 360 360 358 358 357 357 359 358 358 357 357 358 358 357 357 355 353 353 353 352 350 348 345 343 341 344 343 342 341 346
330 330 330 331 332 333 333 334 335 337 338 339 340 342 343 342 342 343 342 342 343 344 345 345 346 347 347 346 344 345 345 345 345 346 346 347 348 349 349 350 350 351 351 353 356 356 357 358 358 359 359 359 360 361 361 362 362 360 360 358 359 357 358 358 358 357 356 357 358 358 357 356 355 356 353 353 350 347 346 346 345 341 340 338 342
331 331 331 331 333 333 334 334 335 336 338 339 339 341 342 342 342 343 342 342 343 345 345 345 346 347 347 347 345 347 350 347 347 351 349 348 348 349 349 349 350 351 352 354 354 357 356 357 358 359 359 358 359 360 360 361 360 359 358 359 358 360 359 358 358 357 357 358 359 359 357 356 356 355 354 353 353 351 349 349 348 344 339 338 341
331 331 331 331 332 333 334 334 335 336 337 338 339 341 342 343 342 342 342 343 343 345 345 346 346 346 347 347 348 347 348 346 345 347 349 349 349 349 349 349 351 351 351 354 354 355 356 356 356 357 358 359 359 359 360 360 360 360 359 358 357 358 362 360 359 359 359 358 358 358 358 358 357 358 356 356 357 356 353 352 350 347 346 341 340
331 332 332 332 333 333 335 335 335 336 337 338 340 341 342 343 343 342 342 342 342 344 345 345 345 345 346 347 347 349 350 348 347 346 348 349 349 350 350 350 350 351 352 353 355 354 355 359 357 356 357 358 358 358 359 360 361 360 359 359 358 360 359 360 360 360 359 359 359 358 358 357 359 356 355 355 356 357 356 352 351 350 350 346 345
332 331 331 331 332 333 334 335 336 336 338 338 340 341 342 343 344 343 342 343 343 344 345 346 346 346 346 347 347 348 350 351 350 350 349 349 348 349 349 350 351 353 355 355 355 354 354 354 356 356 355 356 357 357 359 359 360 359 359 358 360 360 359 358 359 359 358 359 358 357 358 357 358 356 357 356 357 357 356 355 354 353 351 350 349
332 333 331 332 332 334 335 335 336 336 337 338 339 340 341 342 344 344 344 344 344 344 345 345 346 346 346 347 348 349 350 350 351 350 349 349 349 349 350 349 350 353 353 353 354 354 355 354 353 354 354 354 354 355 357 358 359 359 358 358 359 359 358 358 358 358 358 359 359 358 359 359 358 357 357 358 359 358 357 354 352 350 350 350 350
333 334 334 334 333 334 335 336 337 337 339 339 339 339 341 342 342 344 343 342 343 344 344 345 346 346 347 346 347 348 348 350 350 350 350 350 351 353 350 351 353 352 353 352 352 354 354 354 354 355 354 355 355 355 356 358 359 358 358 359 359 359 358 357 358 358 358 359 360 359 359 359 359 358 357 356 355 354 354 353 351 351 351 351 349
333 335 336 341 340 337 336 338 338 336 337 338 339 340 340 341 342 343 344 343 343 344 344 345 347 347 346 346 347 348 349 350 350 349 350 349 349 351 352 353 351 352 354 353 353 353 355 354 353 353 354 355 355 355 356 358 358 358 358 358 357 358 358 358 358 357 358 358 360 359 359 358 358 356 355 353 353 354 352 351 350 348 349 352 352
334 335 336 339 341 341 341 340 337 337 336 338 338 339 340 341 342 343 343 343 344 344 345 346 347 347 347 347 348 348 349 349 349 349 349 349 349 349 351 350 349 350 352 353 353 353 354 354 353 353 354 354 355 355 356 358 359 358 358 358 359 359 358 357 357 357 358 359 358 359 359 359 357 355 355 354 353 352 352 350 350 349 350 351 352
336 335 337 338 339 339 339 340 338 338 337 336 338 339 340 341 342 343 343 343 344 345 346 346 346 347 347 347 347 348 349 349 348 349 348 349 349 349 351 349 349 349 348 351 352 352 352 353 352 353 354 354 355 353 354 355 356 358 358 358 359 359 359 359 358 358 358 359 359 359 357 353 353 353 354 354 351 349 348 349 349 350 351 351 353
335 335 335 338 338 337 337 338 339 338 339 338 338 339 340 341 342 343 344 345 345 348 347 347 347 347 347 347 347 348 348 349 349 349 349 349 349 349 350 350 349 348 349 350 351 352 351 351 350 352 352 353 355 352 352 354 356 358 359 359 358 359 359 359 359 359 360 359 359 348 343 344 349 349 350 350 348 347 346 347 347 350 353 354 353
334 334 335 336 338 339 339 338 338 340 341 340 340 340 341 342 343 345 346 346 347 350 350 349 349 348 348 347 348 348 348 349 350 350 350 350 350 350 349 349 350 349 348 347 347 348 349 350 351 351 351 352 354 353 352 352 355 357 358 358 359 359 359 359 358 358 358 356 350 346 346 349 350 349 349 349 348 347 348 346 347 350 352 353 352
334 335 336 336 337 338 339 340 340 340 340 341 342 343 343 344 345 345 346 346 346 348 348 347 346 345 346 348 349 348 350 350 351 350 351 351 349 348 348 348 349 347 347 347 347 348 348 348 350 351 351 352 352 353 354 354 354 355 357 357 358 358 358 358 357 356 353 351 352 351 351 352 351 351 350 348 347 347 347 348 350 350 351 349 349
335 335 336 336 337 337 338 339 340 339 341 341 342 342 344 344 343 343 344 346 347 346 345 345 346 344 344 347 347 348 349 349 349 349 350 352 352 350 349 350 349 348 349 348 348 349 350 352 352 351 352 354 354 354 354 355 355 355 355 355 356 356 356 356 357 354 353 352 352 353 352 351 351 349 349 349 348 347 347 346 349 350 348 345 344
334 334 335 336 336 336 336 337 339 340 339 339 340 340 341 342 343 343 343 342 343 343 344 345 344 343 341 343 345 346 347 352 351 349 350 352 352 349 349 350 351 351 351 351 352 352 352 352 352 351 352 353 353 353 354 355 355 355 355 355 355 355 355 355 354 351 351 351 350 350 350 349 350 351 352 352 353 352 350 348 349 348 347 346 345
333 334 335 335 335 335 335 337 337 337 337 338 339 339 340 340 341 341 342 343 343 343 343 343 343 342 344 345 345 346 345 348 349 349 349 351 352 352 352 351 350 351 351 354 351 350 349 348 347 344 341 341 340 341 342 341 343 351 355 353 354 354 354 352 350 348 348 347 347 348 353 356 355 355 354 354 352 352 352 351 351 350 349 348 347
332 332 333 334 334 334 334 335 336 336 336 337 338 338 339 340 341 341 342 343 344 343 342 343 341 342 344 345 346 345 343 341 346 348 348 350 351 351 351 351 351 350 349 350 349 347 349 345 342 337 335 334 334 334 332 331 335 340 351 353 352 351 347 346 345 346 345 344 345 346 348 349 346 341 339 343 345 347 349 351 352 352 351 351 347
330 331 332 333 332 332 333 333 335 337 338 337 337 338 339 339 340 340 342 344 343 343 341 341 342 342 343 344 344 344 345 345 345 345 347 348 349 348 347 348 350 349 349 350 348 347 341 339 335 332 331 331 330 329 325 329 332 333 341 351 351 348 347 346 346 346 346 345 345 345 345 343 343 337 335 334 341 347 349 351 351 349 348 347 347
327 330 332 332 332 333 333 334 335 336 337 337 338 338 338 339 339 341 343 343 343 343 342 341 342 342 342 343 342 342 342 344 345 346 347 348 347 348 349 348 348 349 348 347 344 337 332 330 329 329 328 327 327 326 324 327 328 329 333 346 348 349 348 347 346 345 344 344 345 341 334 333 336 338 337 334 336 342 348 346 347 347 346 344 339
328 329 330 332 333 334 334 335 335 337 338 338 340 338 339 341 342 343 342 342 341 341 341 341 341 341 341 341 341 341 341 342 343 344 345 346 346 344 344 345 346 347 343 338 334 331 330 329 329 327 326 324 324 323 321 323 324 327 331 342 349 348 346 345 345 345 343 340 337 333 330 331 332 334 336 336 336 337 337 337 336 337 338 341 342
329 329 331 331 332 333 334 334 336 338 339 339 339 339 339 339 339 339 340 340 340 339 339 339 339 340 340 340 340 340 340 341 343 342 341 342 343 342 342 343 344 344 340 334 331 329 329 328 326 327 326 323 321 318 318 320 321 324 328 343 346 344 343 341 336 333 332 331 331 330 329 329 330 331 334 338 334 335 335 335 334 335 336 336 334
330 330 331 331 332 332 333 333 337 338 338 338 338 339 338 338 339 338 338 338 338 338 338 338 338 339 338 339 340 340 340 341 343 342 341 341 341 340 341 342 337 333 332 330 329 329 327 325 325 324 323 322 322 317 317 318 320 323 337 345 345 343 336 330 329 329 332 332 332 330 329 328 329 330 334 336 337 336 334 333 333 333 334 334 334
330 332 332 334 335 336 337 338 338 337 337 337 339 339 338 337 336 336 337 337 337 336 337 337 338 338 339 340 340 339 340 340 341 341 341 341 342 341 340 337 332 331 329 328 327 327 327 325 324 322 321 322 322 318 314 314 317 324 339 343 341 335 331 330 330 331 331 332 331 330 329 329 330 330 329 324 328 333 333 332 332 332 333 333 333
333 334 336 336 337 338 339 339 339 339 339 339 340 338 338 336 336 336 335 335 335 334 335 337 338 340 339 339 339 339 339 338 337 337 336 336 335 336 335 335 331 329 328 328 327 324 324 325 325 323 323 321 322 319 312 312 315 321 337 338 335 334 334 333 334 335 335 332 331 333 333 328 327 328 325 325 328 333 333 333 333 332 330 329 331
334 334 335 337 338 339 339 339 339 338 340 341 340 339 337 335 336 336 335 334 335 336 337 337 338 340 340 340 340 339 337 336 334 334 334 333 332 332 332 332 330 329 327 326 325 322 322 324 325 327 328 323 322 321 312 312 314 319 333 336 333 330 327 327 329 330 332 331 332 333 334 331 329 325 320 323 328 335 334 334 333 331 329 328 329
336 338 338 338 340 339 338 338 338 337 340 340 340 339 337 337 337 337 337 336 338 338 339 340 339 339 338 338 337 336 335 334 333 333 332 332 332 330 328 327 326 325 323 324 324 324 323 323 325 325 326 325 322 321 318 311 312 315 323 331 329 326 327 328 330 330 329 329 328 327 328 323 320 319 318 318 322 326 333 333 333 330 328 327 332
337 337 339 337 338 337 337 337 338 339 341 341 340 339 338 338 338 337 336 337 338 339 338 338 337 337 336 335 335 335 334 333 333 332 331 330 328 327 325 323 321 322 322 323 323 323 322 322 322 323 323 325 326 323 320 311 311 313 318 324 326 327 328 329 329 329 328 326 325 325 325 321 316 315 314 314 316 321 329 332 332 331 331 331 331
336 338 337 334 332 333 334 336 339 340 340 340 340 338 338 337 337 335 336 338 338 338 337 337 336 335 335 334 333 333 332 331 330 329 326 324 324 323 322 322 323 323 323 322 323 322 320 319 319 319 319 319 324 327 323 317 312 311 314 321 329 330 330 329 328 327 326 325 324 323 322 319 314 314 313 312 312 316 322 328 324 316 319 324 328
329 330 331 328 326 325 325 327 330 336 338 339 339 337 336 336 334 335 337 338 338 337 336 336 335 334 333 332 332 331 330 330 328 327 324 322 323 323 324 324 323 323 322 321 320 320 319 318 318 317 317 317 318 323 325 324 317 311 311 315 320 327 324 331 328 326 324 323 324 323 323 319 310 309 309 311 313 315 321 318 313 316 318 322 326
325 326 326 327 324 323 323 324 326 328 331 336 336 334 334 333 333 336 337 337 336 335 335 334 333 332 332 332 331 330 329 328 326 325 324 323 323 324 325 325 324 323 321 319 318 318 318 317 316 316 316 316 316 317 323 325 323 315 311 312 316 319 323 327 326 323 323 322 322 321 318 309 307 305 308 310 312 318 318 310 313 317 320 323 322
323 324 328 328 326 323 323 324 326 327 328 330 333 332 332 330 332 335 334 333 331 330 328 327 326 326 326 326 326 327 327 328 328 326 325 325 324 324 323 324 324 322 320 318 318 319 317 317 316 315 315 315 315 315 317 323 327 324 318 316 317 318 318 319 325 326 325 322 316 310 309 310 310 310 312 315 316 317 314 314 314 317 323 319 319
322 324 326 326 327 326 325 325 326 327 327 327 327 329 327 325 328 331 329 328 327 326 325 324 324 323 323 323 321 320 321 322 323 325 327 327 326 326 324 323 322 320 320 320 320 320 319 317 315 315 315 314 314 315 315 318 325 331 327 321 321 323 329 328 326 323 321 316 313 313 313 314 317 318 322 322 321 320 317 320 320 321 318 317 316
321 323 325 325 327 326 324 324 323 325 326 326 325 323 323 324 325 326 327 327 326 325 324 322 320 320 320 320 320 318 317 318 318 318 319 322 324 326 325 324 322 321 321 321 321 320 319 318 317 316 316 315 314 314 314 315 318 322 326 328 328 328 329 328 326 325 324 322 321 320 317 314 314 318 319 319 319 319 318 316 316 318 318 317 316
321 323 323 323 323 323 323 323 323 323 324 324 323 322 321 321 323 325 325 325 325 324 320 320 320 321 322 322 322 324 317 313 312 313 314 315 317 320 319 318 318 319 319 319 320 320 319 317 315 315 316 316 315 313 312 313 315 319 322 324 326 326 324 324 323 324 324 323 322 322 320 320 318 316 314 314 314 316 316 315 313 313 314 316 316
319 320 322 322 323 323 323 322 321 321 322 321 320 320 319 320 321 323 324 324 324 324 320 318 319 320 320 320 316 314 313 311 310 308 306 306 308 311 314 313 312 310 315 318 317 318 318 316 316 316 317 316 316 315 312 304 309 305 317 322 322 322 322 323 324 317 322 320 320 318 318 316 315 314 313 312 312 312 313 313 312 312 311 311 311
319 320 321 323 324 322 321 320 319 320 320 320 319 320 320 319 320 321 323 322 321 318 316 315 315 315 315 315 314 313 313 312 310 309 308 306 305 300 304 311 309 309 304 302 309 316 316 315 312 311 312 315 315 312 301 298 298 300 301 305 307 307 310 316 314 313 318 316 316 315 315 315 314 314 312 312 311 311 311 310 311 311 311 309 308
319 319 320 321 321 322 321 320 319 320 320 320 319 319 319 319 319 319 319 318 317 317 316 315 317 315 316 314 312 311 310 310 310 310 310 310 307 305 296 298 305 305 300 296 296 298 303 309 317 311 307 302 301 298 296 296 296 297 299 300 301 301 302 304 307 316 316 315 314 314 313 314 314 313 313 312 313 312 311 309 308 308 309 308 308
Wind_Speed
7 8 8 8 9 7 7 7 7 7 8 8 8 8 9 8 8 8 7 8 7 7 6 6 6 6 4 5 4 4 4 4 3 3 3 3 3 3 3 4 3 3 2 2 3 3 1 1 1 2 2 3 3 3 2 3 3 2 3 1 4 5 4 4 3 2 3 2 3 4 3 1 1 2 4 3 3 3 3 4 3 4 5 5 4
6 6 6 8 7 8 7 7 8 10 9 9 9 9 8 8 8 8 7 7 7 7 7 7 5 5 4 5 3 4 4 4 4 3 4 3 4 4 4 3 4 4 3 3 2 2 2 0 1 1 2 3 3 1 3 2 4 4 4 4 2 3 3 3 5 1 4 2 0 2 5 5 2 0 0 3 3 3 3 4 4 5 6 5 4
6 7 8 8 9 9 8 7 7 8 9 10 8 8 8 8 7 8 7 8 7 7 7 6 5 5 4 4 5 3 3 3 3 3 3 3 4 4 4 4 4 4 3 3 2 2 2 1 0 0 1 2 3 4 4 4 3 4 3 3 4 2 1 2 5 4 1 2 2 2 3 4 4 5 3 2 3 2 1 3 4 5 6 5 4
9 10 10 9 9 9 8 8 8 7 7 8 8 8 7 7 7 8 8 8 7 7 7 6 6 5 3 4 4 3 3 3 3 2 3 4 4 4 4 4 4 4 4 3 2 2 2 2 1 0 1 1 2 2 4 4 4 4 3 2 0 3 4 4 3 4 3 1 2 2 1 1 2 3 4 5 2 4 3 3 3 3 4 4 3
9 9 8 9 10 10 10 9 8 8 8 9 10 9 7 9 8 8 8 8 7 8 8 6 5 4 3 3 3 1 1 3 4 3 4 4 3 3 5 5 5 5 4 4 3 4 3 2 2 1 0 0 0 2 3 3 3 3 2 2 4 1 4 2 3 3 5 2 4 1 1 3 1 4 3 4 3 4 2 4 4 5 5 5 3
13 13 13 12 11 9 7 9 9 8 9 8 9 10 8 8 8 7 7 7 7 8 8 7 6 7 6 5 5 4 4 4 6 7 5 5 6 4 4 5 5 4 4 4 4 3 3 3 3 2 1 1 1 2 2 3 3 3 2 1 1 1 0 3 3 3 2 4 4 2 2 1 1 2 1 3 5 1 3 3 3 5 5 5 4
6 8 9 10 10 10 9 10 10 10 10 8 7 9 9 8 8 8 7 7 7 7 8 7 6 6 7 7 5 6 6 5 4 4 5 5 4 5 5 4 5 5 4 4 4 3 3 3 3 3 2 2 1 1 2 3 3 3 1 1 0 1 1 3 3 3 3 3 3 3 2 1 1 1 2 0 4 4 3 3 4 5 6 4 5
10 10 11 12 12 13 14 12 11 12 10 9 8 8 9 9 9 8 7 7 6 6 7 7 7 6 6 5 5 5 6 6 5 5 5 3 4 5 4 4 4 4 4 4 4 4 4 4 3 3 3 2 1 2 3 2 2 2 0 0 1 0 2 2 2 2 2 2 2 2 2 2 2 3 3 0 1 2 6 3 2 3 5 3 3
11 10 11 12 12 13 11 11 11 9 9 10 9 9 8 9 9 8 8 7 6 7 7 7 6 6 6 5 5 5 5 6 4 3 4 4 5 4 4 4 4 4 4 4 4 4 3 4 3 3 2 3 2 2 3 2 3 3 2 2 2 1 1 1 1 0 0 1 3 2 2 3 2 2 2 2 1 1 4 2 6 4 2 3 5
10 12 12 12 12 12 12 10 9 10 9 9 9 9 8 8 8 9 9 7 7 8 8 8 8 6 6 6 7 6 5 4 3 5 5 5 5 5 4 4 4 3 4 4 4 3 3 3 3 3 4 3 3 3 3 3 3 3 4 4 3 2 1 2 1 1 1 1 1 1 2 1 2 1 1 2 1 1 3 4 4 4 6 5 4
9 9 10 11 11 10 9 11 11 8 7 9 9 9 8 9 9 9 9 7 7 8 9 9 8 7 7 8 8 8 7 5 5 4 4 4 5 5 5 5 4 4 3 3 4 3 3 3 3 4 3 3 3 4 4 3 3 3 2 2 2 3 2 2 1 0 1 1 1 1 0 0 1 1 2 1 1 2 2 3 4 3 4 6 4
9 9 9 7 5 7 8 9 9 9 8 9 8 8 9 9 9 10 8 8 7 7 8 8 8 7 7 8 8 7 7 6 7 7 6 7 6 6 4 3 4 3 3 3 3 3 3 4 4 4 3 3 4 4 3 3 3 3 3 3 3 3 2 2 2 2 2 1 2 1 1 1 1 2 2 2 2 3 1 4 5 3 3 3 5
9 9 8 8 9 10 11 10 9 9 10 11 10 10 10 9 10 11 10 8 8 7 8 7 7 7 7 7 6 6 6 7 7 7 6 7 6 5 5 5 4 4 4 4 5 5 4 5 5 5 5 5 5 4 4 3 3 3 3 3 3 4 4 3 3 4 2 3 3 1 1 1 3 2 1 3 2 2 2 3 2 1 4 4 3
9 9 9 9 10 11 11 11 11 11 11 12 11 10 9 9 10 11 11 9 8 7 8 7 7 7 7 7 7 6 6 7 7 7 7 6 6 6 6 6 6 6 5 6 6 5 5 6 5 5 5 5 4 5 4 3 3 3 3 3 5 4 2 3 3 3 2 3 1 2 2 2 3 2 2 2 3 2 2 3 4 2 2 4 2
8 9 10 11 11 11 11 11 11 11 12 11 10 10 9 9 10 11 10 9 9 9 7 8 7 6 6 7 7 6 6 6 6 6 6 6 5 6 6 5 5 6 6 6 5 5 5 5 5 5 5 6 5 4 4 3 3 3 3 4 4 3 3 3 3 3 3 3 2 3 3 3 3 3 2 3 2 3 3 3 1 5 4 1 3
8 10 10 11 11 10 9 9 10 10 11 10 11 10 10 10 11 12 12 11 9 9 8 8 7 6 6 7 7 7 5 5 5 4 4 5 6 6 6 6 6 6 5 5 5 5 5 5 4 5 5 5 5 5 4 4 3 3 4 4 4 2 3 4 4 3 4 4 4 3 2 4 3 3 2 2 2 3 3 2 2 3 4 7 3
7 9 10 9 9 10 10 10 9 10 9 11 11 12 12 11 11 11 10 10 11 10 9 7 7 7 7 7 6 6 7 7 6 7 6 5 5 5 5 6 5 5 5 4 5 5 5 5 5 5 5 5 5 5 5 4 4 4 4 4 5 4 4 5 3 3 4 3 3 4 4 3 4 3 2 3 3 3 3 3 4 5 4 3 4
7 9 10 11 10 12 11 10 11 12 12 12 12 11 10 10 11 12 11 11 11 10 10 9 8 8 7 8 7 7 7 7 6 6 5 5 5 5 4 4 6 5 5 4 4 4 5 5 5 6 5 4 5 5 5 5 5 4 5 5 5 4 4 3 3 3 4 3 4 3 3 3 3 2 3 3 2 3 3 3 4 4 4 5 3
5 6 7 8 9 10 11 12 12 12 11 11 11 10 9 9 9 11 13 12 12 9 9 8 8 7 7 8 8 6 6 5 5 5 5 5 5 5 5 6 4 4 5 5 5 5 5 5 5 5 5 6 5 6 6 5 5 5 5 5 5 4 4 5 4 4 4 4 4 5 3 4 3 3 2 2 2 2 3 3 3 1 3 4 5
7 6 7 8 9 9 11 12 12 12 11 10 10 9 11 10 10 10 9 8 8 9 9 10 10 9 8 6 6 6 6 6 6 6 5 6 6 6 5 5 6 5 5 5 5 5 5 5 5 5 5 5 5 6 5 6 5 5 5 5 5 5 5 6 6 4 4 4 4 4 4 4 2 2 2 2 2 2 2 1 2 3 3 3 3
7 4 3 5 6 6 6 7 9 9 9 9 10 11 11 9 10 10 11 10 10 10 9 9 8 8 8 8 8 7 7 6 6 6 6 6 5 5 6 6 4 5 5 5 5 5 5 5 5 5 5 6 6 6 5 5 5 6 6 6 6 5 6 6 5 6 4 4 4 5 5 5 3 4 3 2 2 1 0 0 3 1 4 2 3
4 3 2 3 4 5 4 3 3 7 8 10 10 9 9 10 10 10 9 9 10 10 9 8 7 8 10 9 9 7 6 6 7 6 6 6 6 5 6 5 6 6 5 5 6 5 5 5 5 6 6 6 6 7 5 5 5 6 6 5 5 6 6 6 5 6 5 4 5 5 5 5 3 4 3 3 2 2 1 2 1 2 4 4 3
4 3 3 4 3 5 6 5 5 7 9 10 10 10 11 11 11 9 10 11 11 11 9 8 7 7 9 8 7 6 6 7 7 6 7 6 6 6 5 6 6 5 4 5 5 5 5 5 6 6 6 6 6 6 4 4 5 7 7 6 6 6 7 7 6 6 7 4 5 5 6 4 3 4 4 3 2 1 2 3 2 2 4 4 3
2 0 1 2 3 5 3 5 6 5 6 9 10 10 10 11 10 10 11 12 10 7 6 7 8 8 7 7 6 6 7 7 7 6 7 6 5 6 5 6 6 4 4 4 5 5 5 6 6 7 7 7 5 1 4 5 7 7 7 8 7 7 6 7 7 7 6 5 6 6 3 7 6 5 5 4 3 1 2 3 3 2 3 4 3
2 2 2 1 2 3 4 4 4 4 4 4 7 9 9 10 9 10 9 7 5 4 4 4 5 6 6 7 7 6 7 7 7 6 7 6 6 5 4 5 5 4 4 4 5 5 6 6 6 8 8 7 7 8 7 8 7 7 8 7 8 7 7 7 7 7 6 6 2 8 3 4 3 3 2 1 1 4 3 4 5 3 2 3 3
2 4 3 2 1 1 1 3 3 2 2 3 4 6 8 8 7 7 8 9 8 8 8 7 4 3 2 2 3 4 5 6 5 5 6 5 5 5 5 4 4 4 3 2 3 4 5 7 8 8 8 8 7 8 9 8 7 7 7 6 7 7 7 6 6 6 6 2 6 7 6 6 5 4 3 2 2 4 3 3 3 3 2 2 2
6 6 5 3 2 1 1 1 1 2 0 1 1 2 4 6 7 8 9 10 9 9 9 8 7 7 5 4 3 3 3 4 4 4 3 3 3 4 4 4 3 3 2 1 2 1 3 5 7 7 8 8 7 6 7 8 8 8 8 7 7 7 7 6 6 6 2 4 5 5 6 5 5 4 3 3 3 4 3 4 3 3 2 2 2
5 6 6 5 4 3 2 2 1 0 2 3 4 3 2 5 7 5 4 4 5 8 8 7 6 6 7 7 7 6 4 3 3 3 3 2 2 2 1 2 3 4 3 2 1 0 2 3 4 5 6 5 5 6 6 7 7 7 6 7 7 6 7 6 5 3 4 4 4 4 4 3 2 2 3 3 2 3 2 3 3 3 3 2 2
6 6 5 6 5 4 3 3 3 3 5 6 5 5 5 4 5 7 9 8 8 8 5 4 6 5 3 3 0 4 6 5 5 5 5 4 4 3 2 2 2 1 0 1 2 4 5 5 4 5 5 4 3 4 3 4 5 6 6 7 7 7 7 7 4 5 4 3 3 2 2 2 4 6 7 5 4 4 4 4 3 2 2 3 3
3 4 5 5 5 5 3 4 4 5 7 6 5 5 5 4 3 5 7 7 10 11 8 4 6 7 6 2 3 3 3 4 2 2 4 6 6 5 4 5 4 3 2 2 3 2 1 2 3 4 5 4 4 4 9 14 11 7 6 4 4 5 4 5 4 6 6 4 3 3 1 3 2 3 4 3 4 3 0 4 3 2 2 3 4
1 3 4 4 4 4 4 6 6 5 6 6 6 6 7 4 2 3 5 5 8 9 8 9 9 8 7 6 5 3 3 3 3 4 4 5 5 5 5 4 3 3 3 3 2 1 2 4 4 4 4 3 4 5 12 8 10 12 8 5 4 4 7 6 5 3 4 2 2 4 3 5 5 7 8 9 6 4 3 1 3 3 2 2 3
4 3 3 3 3 4 4 4 3 4 5 6 4 5 5 6 6 5 5 5 4 3 6 6 7 8 7 4 3 3 4 6 6 4 5 2 3 4 4 3 1 2 3 2 2 3 4 5 5 5 5 5 5 10 9 8 8 8 7 5 5 5 5 6 5 5 3 3 2 4 2 2 4 5 3 3 4 7 6 10 14 14 14 14 12
4 3 2 3 3 4 3 4 3 3 3 4 6 6 6 5 5 6 6 6 6 6 5 6 6 5 4 4 3 3 5 7 8 8 6 3 4 4 3 2 2 3 3 2 2 5 5 4 5 5 5 5 4 10 10 8 6 6 7 5 3 3 4 4 5 4 4 5 4 3 3 3 3 8 5 3 3 5 10 14 13 13 13 14 12
1 3 4 2 1 1 3 3 4 3 3 4 5 6 6 6 5 5 7 6 7 6 6 7 5 5 7 8 8 7 6 3 3 7 6 5 4 4 5 5 4 3 4 4 4 5 4 5 5 5 4 3 3 9 10 8 6 6 2 1 4 5 6 6 5 3 4 4 4 4 4 5 6 7 6 6 5 5 5 6 7 7 9 12 14
1 3 3 3 3 1 1 1 4 6 5 6 6 7 6 6 5 5 5 7 7 8 7 8 8 6 5 4 6 8 5 4 6 5 5 5 6 5 5 4 4 4 4 4 4 5 4 5 6 5 4 3 4 11 10 8 7 6 4 2 5 6 7 6 6 6 6 6 6 7 8 7 7 7 9 8 6 5 6 6 8 10 9 9 10
1 1 2 2 2 2 2 3 1 2 3 4 6 6 7 6 5 7 7 7 8 7 7 6 7 6 5 6 6 7 7 7 5 4 5 6 6 5 4 5 6 5 5 5 5 6 6 5 4 3 3 3 3 9 8 9 9 8 4 2 4 5 6 8 9 8 7 6 6 6 6 6 6 6 10 13 10 6 7 8 9 8 8 9 9
2 3 1 1 1 1 1 2 2 2 3 4 5 5 5 6 5 4 4 4 6 5 3 2 3 6 5 4 4 4 5 6 4 5 5 5 6 6 6 6 7 5 5 6 6 7 5 4 4 3 4 3 5 9 10 10 9 8 7 7 8 9 8 6 9 9 9 7 6 5 5 6 8 7 9 12 11 10 6 6 5 7 7 7 7
3 4 4 2 1 1 1 1 3 5 4 4 5 5 6 6 4 3 3 3 5 4 2 3 3 7 5 3 4 5 4 5 5 6 7 7 7 7 7 6 8 7 6 5 5 6 6 5 5 5 5 6 6 10 12 11 10 9 8 9 9 8 7 3 2 10 7 7 7 12 8 6 7 6 6 8 6 4 4 4 5 8 9 8 5
4 4 4 3 2 2 2 2 3 3 5 6 6 7 7 6 5 4 3 4 4 5 4 4 5 4 5 6 5 4 5 6 6 6 7 7 7 8 8 8 7 7 7 6 5 6 6 5 5 7 12 9 7 8 12 11 11 10 8 7 8 9 9 7 7 9 6 5 6 9 13 10 8 7 9 8 8 6 6 7 7 8 7 7 5
5 4 3 3 3 4 3 3 4 4 6 8 8 7 8 7 6 6 5 5 6 6 6 5 6 6 6 7 7 7 7 7 7 5 7 8 7 8 8 9 8 7 7 6 6 6 7 7 6 6 6 6 7 7 10 13 13 14 12 9 7 10 8 6 7 8 7 7 6 8 11 14 13 13 13 12 11 10 8 6 6 8 8 8 4
4 4 4 4 4 4 4 4 4 5 6 6 7 8 7 7 6 7 7 6 7 7 7 7 6 7 8 8 8 7 9 7 6 7 8 7 7 8 8 8 8 7 7 7 8 7 7 6 5 6 6 7 7 7 9 13 12 12 12 9 7 7 6 7 8 8 7 7 7 8 7 12 15 16 15 15 14 13 12 10 9 9 8 7 7
6 4 3 5 4 5 5 5 4 6 6 6 7 8 6 7 8 8 8 8 7 7 7 7 8 9 9 8 8 7 7 7 7 7 8 8 7 8 7 7 6 7 9 9 7 6 6 6 6 6 7 6 9 13 6 11 12 11 10 9 5 5 5 8 9 8 8 8 8 7 6 10 16 16 16 16 16 15 14 9 9 11 11 11 8
5 4 3 4 6 6 6 6 5 6 7 7 10 9 7 8 8 8 7 8 8 8 8 9 9 9 9 8 8 9 7 6 7 7 8 8 7 8 7 7 7 7 7 7 6 4 5 6 6 6 6 7 7 8 13 9 10 10 10 10 10 8 9 10 11 10 9 8 7 8 9 15 17 17 17 17 16 17 12 10 14 14 12 11 9
5 5 5 5 7 7 5 5 5 6 7 7 10 10 8 8 8 6 7 8 9 9 9 9 8 8 9 9 8 9 8 7 8 8 9 9 8 7 7 5 5 6 6 6 5 4 5 6 6 6 6 6 6 5 9 12 9 11 12 13 13 13 13 10 9 8 7 7 7 7 8 15 16 17 17 17 17 14 12 15 14 14 14 12 8
7 7 8 9 8 7 7 8 7 7 7 7 8 12 10 9 6 6 7 8 8 8 8 8 9 8 8 8 8 8 7 6 6 7 8 7 7 7 6 4 5 6 6 6 5 5 5 5 5 5 5 5 5 5 6 9 14 14 14 16 16 16 14 15 12 8 8 7 9 12 14 14 14 14 15 14 14 15 17 16 16 15 14 8 8
7 7 8 7 5 3 8 10 9 7 6 6 6 9 12 7 5 6 7 7 8 8 8 7 6 6 6 6 7 7 7 7 7 5 5 5 6 5 6 5 5 6 5 5 5 5 5 5 5 4 4 4 4 5 6 6 7 12 13 15 16 17 18 17 14 10 11 12 13 14 14 14 13 11 9 9 9 11 16 16 16 14 9 8 8
8 8 10 7 6 7 8 9 8 6 5 6 7 7 8 7 7 6 6 7 7 8 7 7 7 7 6 7 8 6 6 6 6 5 5 5 5 5 6 5 5 5 5 5 5 5 5 5 5 4 4 4 5 5 4 4 5 6 7 9 11 12 15 13 10 9 10 10 12 12 11 12 12 15 15 14 12 12 10 9 8 8 8 8 8
5 5 8 8 8 7 8 8 6 3 5 6 6 5 7 8 7 6 6 6 7 6 6 6 6 5 5 5 6 9 8 6 6 6 5 5 5 5 6 5 4 4 5 5 5 5 5 4 4 4 5 5 5 4 4 5 4 5 6 6 6 6 6 6 7 6 7 8 8 8 9 7 8 8 8 7 7 7 8 8 8 7 8 8 10
6 4 6 8 8 8 8 8 4 2 4 6 5 4 6 8 7 6 6 7 7 7 7 6 5 5 5 5 5 5 5 6 6 6 7 7 5 4 4 6 5 3 3 3 5 4 4 3 4 4 5 6 5 4 2 2 2 4 3 7 7 6 6 6 7 9 8 6 6 7 6 7 6 7 7 7 6 7 7 7 8 7 6 6 6
5 5 6 7 8 9 8 7 3 1 4 6 6 5 5 6 6 6 7 8 7 6 6 6 5 5 5 5 5 5 4 5 5 6 6 7 11 12 7 4 4 8 10 9 6 4 3 3 5 4 4 4 5 3 3 2 1 2 7 10 9 10 9 9 9 10 7 7 6 7 6 6 6 5 6 6 6 6 6 6 6 6 6 6 6
7 8 7 8 7 7 8 7 4 3 6 6 6 6 6 5 5 6 8 9 8 7 6 5 5 5 5 5 5 6 4 5 5 5 6 7 6 8 12 12 10 10 10 12 13 11 9 7 5 4 6 10 8 6 4 3 5 8 12 13 13 13 12 11 10 9 6 6 6 6 6 5 5 5 6 6 5 5 5 5 5 5 5 6 6
Wind_Direction
174 165 159 154 151 149 143 147 151 151 145 153 158 161 158 157 149 151 153 146 150 152 153 155 160 155 153 177 188 179 182 191 209 210 205 219 226 242 235 223 219 218 209 194 209 222 251 354 18 356 15 48 43 39 328 325 344 323 325 315 13 6 333 356 17 14 53 6 352 14 340 350 295 218 244 252 248 248 241 255 259 263 251 251 253
128 139 144 143 150 151 148 152 155 156 160 156 167 168 162 157 155 152 151 152 157 161 163 169 171 175 157 178 167 161 175 179 208 214 214 211 213 232 230 214 212 205 197 193 214 188 229 328 67 311 17 42 34 1 342 341 356 11 2 347 51 20 321 344 341 50 39 101 347 332 346 333 4 132 197 245 242 243 241 251 253 256 260 254 248
158 163 155 157 154 156 158 163 167 163 161 160 163 162 162 160 157 153 158 157 164 164 162 173 178 174 162 161 171 150 180 186 171 173 187 207 214 215 215 212 205 211 200 189 194 206 183 176 238 258 62 30 16 355 359 352 6 5 17 24 332 355 304 320 3 29 140 176 181 82 7 2 331 357 326 323 329 274 258 270 283 271 264 256 248
170 170 171 165 163 163 163 169 168 157 160 159 160 167 167 162 160 158 162 161 163 172 173 175 170 163 142 137 161 143 172 165 160 152 173 191 223 207 214 203 202 211 195 191 195 218 193 200 216 44 36 74 78 351 345 342 350 356 355 9 99 339 357 328 8 19 88 118 14 31 219 126 8 329 324 297 300 316 335 314 309 306 303 286 254
171 169 170 167 169 175 175 172 165 167 171 174 166 170 175 171 168 164 165 166 168 172 169 160 147 133 132 89 121 120 64 119 148 202 203 207 204 197 215 195 201 211 196 196 205 212 212 204 199 195 97 88 82 341 322 316 313 303 297 342 42 356 343 320 326 21 33 11 142 105 0 22 207 257 345 289 356 335 340 323 327 345 346 327 306
172 179 178 177 175 171 169 172 174 175 178 185 176 169 167 169 166 164 164 167 170 174 160 157 163 157 157 155 153 170 194 168 186 201 202 196 208 201 194 195 194 206 201 201 211 205 207 218 212 202 210 220 227 243 272 315 321 318 274 239 97 350 163 21 352 343 21 38 63 102 161 143 268 270 49 319 319 230 303 298 311 341 338 331 341
193 179 169 168 176 173 178 180 182 181 188 175 175 171 165 168 171 169 171 175 174 170 161 159 156 163 174 180 179 182 187 223 212 206 197 212 199 197 204 191 193 198 207 202 208 212 202 206 209 215 231 216 263 227 299 287 295 288 271 182 266 59 71 55 10 312 331 25 32 49 56 28 175 85 335 88 342 319 344 341 334 338 331 336 341
178 182 183 181 178 180 184 186 185 187 176 171 175 171 166 171 171 175 176 176 179 165 168 166 165 167 171 182 184 189 194 214 211 214 207 186 191 211 196 203 196 203 208 208 206 211 204 208 205 207 213 234 232 242 261 277 296 309 169 68 36 18 99 105 342 340 66 322 9 17 22 46 42 65 103 28 203 290 314 320 245 311 329 323 327
179 180 187 185 184 187 184 187 189 175 172 176 178 178 171 170 172 173 179 178 177 169 169 176 172 173 178 183 198 212 210 224 218 213 195 188 195 201 201 212 209 213 217 213 210 210 215 209 206 214 211 230 233 243 254 263 257 242 181 168 189 188 162 154 126 223 51 347 336 359 11 31 40 61 88 108 126 169 282 299 313 327 302 295 326
189 188 188 189 188 186 187 181 176 184 180 178 178 171 170 168 173 174 184 182 172 173 173 178 180 171 178 188 197 212 213 218 171 199 191 178 190 196 202 210 218 217 223 233 230 222 226 219 204 223 227 224 243 241 258 264 256 231 226 218 185 172 225 186 177 213 242 279 276 239 29 354 17 358 19 58 72 161 258 303 316 329 330 310 320
193 193 195 194 189 180 168 180 186 176 173 175 176 177 172 173 176 180 188 181 170 173 171 179 180 174 182 185 196 201 197 183 176 191 160 158 190 196 194 210 205 216 215 229 233 232 225 224 223 226 227 234 245 245 237 242 238 230 233 240 212 203 202 203 170 125 199 225 213 236 211 158 165 210 273 314 295 291 324 287 290 252 271 306 295
192 191 192 183 163 170 174 181 179 178 171 177 180 178 178 179 176 183 188 188 179 174 174 176 178 183 184 184 193 198 182 177 186 189 181 187 192 198 200 188 214 221 226 238 240 226 216 223 230 230 230 228 239 237 244 224 226 217 218 217 230 220 207 188 183 225 221 200 256 220 258 282 286 248 271 218 209 253 230 280 289 298 290 229 281
188 189 181 176 179 177 183 184 174 174 182 183 182 181 182 180 179 181 191 190 190 177 183 179 178 183 186 191 200 193 185 183 190 191 186 188 187 189 175 204 201 216 225 220 229 213 206 213 214 216 225 224 227 227 240 226 219 217 221 225 228 234 221 210 221 238 224 247 273 229 265 252 253 246 246 256 247 229 211 267 275 211 263 297 292
187 184 183 182 184 188 188 183 181 183 183 183 181 181 182 184 183 186 192 188 188 185 186 187 191 185 185 191 200 191 192 191 192 193 192 192 185 191 190 193 198 207 208 217 220 209 206 213 211 220 226 227 223 227 233 229 210 218 218 225 233 237 207 220 235 241 226 244 232 254 237 240 258 243 241 229 242 227 238 232 282 296 248 288 287
183 182 185 187 188 188 186 185 186 185 184 183 181 183 181 185 185 188 189 190 188 190 184 189 196 192 185 193 196 192 194 193 198 197 187 189 192 191 203 197 195 211 211 224 214 211 218 213 211 217 220 220 220 227 233 226 223 218 216 225 237 217 222 221 232 231 251 252 233 224 255 248 247 242 231 231 219 226 233 249 209 308 313 274 302
182 182 186 188 188 187 186 187 188 188 186 184 184 180 183 188 188 190 189 186 189 189 193 188 191 188 186 188 192 189 192 189 194 197 193 195 193 199 206 205 210 210 216 219 217 200 214 221 218 228 227 226 219 220 224 224 218 218 238 232 244 208 213 219 225 219 234 236 244 237 236 263 256 262 251 251 227 224 224 215 200 191 271 304 301
191 183 185 180 181 187 188 188 188 187 186 189 189 186 187 184 186 191 193 186 186 190 190 187 182 183 194 189 179 181 179 179 186 191 191 190 192 203 206 214 213 211 219 210 216 202 211 211 220 230 227 227 226 222 216 218 212 214 225 232 241 232 221 234 232 228 241 239 241 239 236 255 263 259 262 253 243 225 223 219 195 214 195 258 297
212 199 185 179 180 184 188 191 189 189 191 192 194 192 189 187 187 188 189 191 193 188 186 184 185 192 191 191 188 185 178 178 179 187 185 175 191 197 201 205 212 213 210 218 200 207 211 220 218 228 230 223 226 224 218 217 206 218 222 226 234 222 226 241 238 234 247 243 249 256 243 250 256 253 259 271 270 255 242 225 211 213 178 220 221
240 227 202 188 184 183 185 191 193 191 192 193 194 190 187 192 195 193 193 194 191 189 187 187 189 193 192 193 187 185 181 172 173 176 173 181 194 192 197 214 218 214 215 218 213 205 210 218 218 232 224 224 220 223 215 217 203 220 220 227 224 212 219 238 236 221 235 226 236 248 243 252 248 256 270 285 279 265 261 242 257 236 216 216 234
235 228 219 206 197 189 187 188 189 189 189 190 188 187 194 195 192 198 205 198 189 192 190 191 193 193 192 186 192 187 183 180 175 170 176 187 193 190 201 204 216 208 214 215 212 216 215 213 211 220 231 224 222 225 216 216 204 219 222 225 224 201 221 229 240 229 234 227 232 241 244 246 239 229 244 252 264 269 276 304 21 320 282 269 248
214 226 240 238 218 208 203 198 194 189 187 182 182 188 196 191 195 198 198 197 197 199 195 201 190 195 187 189 190 188 190 183 179 181 185 192 190 195 198 208 198 217 212 218 222 227 229 226 225 225 228 234 231 235 220 210 210 217 219 224 223 203 218 232 229 243 234 230 229 239 249 244 223 234 239 264 274 256 199 176 133 268 285 256 233
281 274 230 221 229 229 222 203 197 186 186 185 186 185 186 189 196 197 197 201 202 200 199 199 193 192 197 196 194 188 187 188 189 189 194 191 194 196 201 194 205 216 200 214 221 228 223 224 232 234 236 235 235 235 220 205 213 217 226 216 222 216 222 235 224 240 234 222 219 234 243 238 204 224 235 235 220 218 227 267 103 249 256 261 216
231 253 312 320 296 229 211 208 202 197 193 191 186 185 187 191 192 193 193 202 202 203 198 189 190 194 203 204 191 187 183 188 199 205 207 202 200 201 197 202 213 222 206 207 219 223 237 235 236 243 240 240 237 236 241 229 223 218 226 225 222 218 219 232 233 233 238 224 222 225 241 228 206 227 229 227 221 280 340 318 297 237 263 259 236
207 156 307 294 317 319 260 209 212 214 203 196 192 190 190 190 190 188 196 201 198 197 187 182 187 195 193 186 192 192 187 191 201 208 212 217 214 211 204 207 214 217 222 221 219 230 234 233 235 244 238 238 229 146 257 235 242 241 231 234 231 224 222 227 231 237 234 228 227 229 335 8 352 317 324 349 15 16 334 327 300 279 268 289 293
130 115 86 58 355 325 313 287 246 231 228 216 200 192 190 192 186 189 195 181 150 123 149 184 194 191 183 187 196 190 196 201 210 206 211 205 209 216 217 221 218 217 221 225 242 235 243 238 234 233 240 230 216 210 218 231 233 232 235 236 239 234 228 229 232 236 239 223 195 59 63 228 232 255 273 309 344 348 345 321 312 316 308 320 1
145 135 101 74 116 262 323 332 331 340 271 251 238 208 196 187 179 165 146 147 151 140 136 129 100 82 32 308 244 209 208 213 215 218 219 214 206 207 212 228 232 247 267 283 291 293 267 252 239 240 238 238 216 217 232 239 232 225 226 234 238 235 235 234 236 231 233 80 104 157 192 206 204 199 228 207 212 223 219 237 264 272 289 326 22
164 156 144 137 96 72 42 56 0 295 17 56 16 253 184 157 157 163 163 155 152 141 132 125 125 125 131 140 156 186 203 202 203 201 191 182 194 186 174 143 117 122 117 96 81 3 298 276 270 258 247 243 236 215 220 223 226 226 223 227 233 232 232 231 231 237 135 157 172 177 188 187 188 192 197 207 221 256 269 278 284 292 315 343 358
166 161 156 148 146 136 122 113 114 62 56 57 44 40 138 164 161 146 98 68 84 103 105 116 143 173 172 154 149 150 144 146 142 135 122 102 78 66 84 123 155 164 189 187 198 143 342 4 334 315 299 288 267 244 230 232 232 231 229 229 232 230 231 228 225 167 168 154 169 183 187 181 157 174 210 228 236 253 263 280 288 295 312 329 342
180 167 151 145 152 158 158 145 136 110 75 57 52 45 46 55 70 84 103 105 84 57 43 110 156 173 70 29 351 155 151 153 156 164 163 163 160 150 161 192 254 316 355 354 2 5 17 19 21 14 351 356 356 348 351 330 284 263 240 242 234 232 228 228 174 157 145 143 162 167 135 168 203 213 216 228 232 256 262 278 288 303 316 324 317
171 157 154 149 143 139 107 84 78 107 112 120 122 119 97 87 89 110 121 134 129 131 132 91 60 52 68 107 279 321 1 10 358 195 181 177 177 168 159 176 179 164 181 52 54 71 118 85 85 54 38 16 17 17 360 355 355 340 304 282 294 277 307 337 25 35 40 36 82 120 203 179 162 81 60 76 63 46 130 224 244 267 315 310 311
186 169 155 146 152 163 163 138 127 153 165 155 155 143 133 107 61 78 67 71 97 115 126 139 135 142 148 180 189 155 121 150 248 281 228 199 166 148 150 146 136 154 144 112 103 311 26 53 33 43 47 37 24 10 360 356 359 359 360 352 333 18 72 79 91 134 145 145 351 2 43 68 68 53 44 39 40 35 37 326 308 318 330 351 328
216 193 158 164 162 164 182 203 174 151 155 144 132 124 118 120 114 95 105 109 107 131 143 141 143 156 171 166 139 150 182 183 174 207 276 265 113 99 84 96 89 40 34 24 15 53 52 52 62 56 48 31 20 354 349 353 2 357 358 28 68 94 118 140 130 126 119 124 214 206 136 83 97 110 108 76 53 53 63 71 77 71 61 56 59
250 250 177 174 190 176 155 136 161 203 135 113 115 110 112 128 141 142 137 131 131 124 122 132 150 145 118 117 122 193 212 192 175 164 176 178 125 126 122 90 49 53 64 37 54 49 41 41 51 57 48 33 2 345 337 346 353 1 7 29 107 130 102 107 115 127 154 181 188 124 87 45 39 55 54 43 56 66 79 74 73 75 73 68 60
329 341 351 348 2 155 153 145 121 141 126 123 130 129 135 136 135 155 151 137 122 127 134 140 144 150 154 163 169 187 217 248 178 160 153 136 118 93 89 96 108 104 87 72 61 72 69 63 66 68 59 28 3 347 330 333 347 351 11 72 103 102 107 122 114 113 119 112 95 89 63 41 29 33 26 26 37 68 66 65 60 59 63 57 57
3 338 343 17 14 19 339 141 144 147 141 127 123 121 119 113 124 127 127 130 143 153 162 152 154 162 154 164 175 183 182 202 221 196 133 128 132 148 131 97 88 98 102 100 90 88 80 62 58 60 61 19 7 349 339 332 347 340 328 132 130 129 120 91 79 81 80 70 68 71 69 60 42 28 34 42 41 37 61 63 64 62 60 61 58
24 29 357 29 5 321 270 264 208 104 115 113 114 111 116 125 141 146 153 155 150 149 147 154 155 146 163 192 206 181 171 190 207 176 141 131 139 141 128 114 103 107 119 122 104 88 72 67 70 87 107 61 2 7 359 1 3 359 9 89 88 91 83 98 95 91 85 80 78 75 76 76 65 56 48 50 54 48 54 62 64 63 66 67 65
14 69 61 43 320 349 253 205 176 140 140 131 127 119 118 123 128 132 133 118 90 80 83 103 154 147 170 193 232 220 186 164 153 126 112 112 108 104 99 106 100 89 80 71 73 71 74 71 60 63 69 52 22 9 10 20 19 26 58 68 63 60 49 36 102 93 79 68 61 82 104 92 78 70 67 68 63 71 74 73 84 79 75 69 70
63 64 79 80 57 48 83 114 150 165 159 139 127 108 97 85 89 93 111 94 111 128 113 137 198 149 144 138 183 204 182 116 103 96 96 90 86 94 107 110 113 109 89 75 69 72 66 66 68 66 61 62 39 19 13 15 34 42 92 100 109 108 102 56 24 83 79 83 95 93 76 69 73 62 49 55 51 77 85 97 91 83 74 70 60
66 78 70 67 99 134 132 124 107 112 128 124 120 120 112 131 148 143 134 113 116 131 131 128 134 119 119 126 132 107 82 83 84 88 95 96 94 99 104 96 95 96 94 91 89 84 83 64 51 58 56 52 38 26 20 22 40 60 77 83 88 91 85 81 76 75 69 64 50 60 61 68 74 67 60 55 63 80 81 77 80 83 84 80 71
79 67 75 77 81 86 65 74 91 103 119 125 125 118 124 141 140 144 138 128 117 115 108 96 90 91 92 90 90 84 79 81 84 80 88 92 98 94 95 99 94 96 102 96 89 81 72 58 47 49 56 54 49 35 27 31 37 45 65 81 84 94 95 95 86 90 91 77 62 64 60 62 64 67 66 64 59 59 73 74 78 80 84 78 67
85 85 88 81 66 66 68 68 82 98 105 108 114 106 105 110 108 99 90 86 88 89 88 89 88 87 84 82 83 85 87 76 78 87 90 86 87 97 97 95 98 96 96 92 87 83 75 62 51 48 45 43 48 43 32 34 38 48 60 77 85 91 99 93 94 95 88 83 71 66 64 62 68 65 62 59 59 57 64 67 65 72 68 68 64
63 62 61 89 78 66 61 69 82 90 90 95 99 92 93 86 82 78 78 79 79 79 80 79 78 81 82 83 83 76 74 82 82 85 86 82 78 82 85 89 92 97 95 89 87 87 86 73 56 47 46 38 37 45 40 35 38 44 48 62 85 84 91 105 93 89 82 75 72 66 60 63 67 66 64 62 59 58 57 62 57 60 56 60 67
94 71 43 87 85 67 47 39 41 67 84 95 94 86 76 77 73 76 80 83 83 81 77 76 74 71 72 70 69 75 75 75 78 75 81 81 81 82 83 87 94 90 85 82 74 65 68 64 54 42 33 29 28 38 39 40 38 47 54 56 60 71 69 91 95 89 85 83 75 77 76 72 70 67 64 60 58 58 57 53 54 51 51 54 58
72 64 47 59 82 78 63 49 48 50 55 71 93 89 80 78 80 84 85 86 84 81 78 76 72 73 76 78 80 81 83 82 88 87 84 91 85 82 80 77 80 82 81 77 63 58 59 56 55 46 38 32 26 17 27 37 45 55 67 72 75 79 88 89 86 90 86 88 85 75 80 77 74 71 68 65 60 58 58 53 53 54 54 52 51
105 89 71 45 29 48 68 54 37 57 67 74 93 100 95 87 72 84 86 85 81 79 81 83 86 87 88 89 84 85 79 75 81 93 98 98 95 98 92 79 84 79 79 81 68 67 69 70 62 57 45 37 28 31 32 25 56 76 80 86 88 87 87 92 90 88 85 81 90 90 80 73 71 68 68 67 61 53 53 55 53 52 53 47 48
97 93 84 79 55 49 80 68 50 41 57 72 85 102 103 97 85 88 87 90 90 88 83 82 83 79 82 84 81 70 66 67 69 64 76 83 99 102 100 95 84 83 85 89 94 86 81 76 73 67 58 51 40 42 40 31 44 84 85 85 88 90 89 86 88 90 94 91 83 76 72 69 64 61 61 59 62 60 56 56 57 57 53 51 46
117 121 118 108 88 52 64 77 63 23 50 59 76 81 101 107 98 93 92 94 93 91 85 80 78 72 64 73 76 75 67 58 56 61 60 57 59 82 87 83 84 90 86 89 88 87 84 76 73 65 63 52 51 45 35 36 20 63 78 92 94 95 97 97 94 93 89 83 79 76 78 75 73 67 67 65 63 59 55 50 47 47 54 58 57
110 127 125 123 119 121 96 84 72 31 62 70 67 90 105 104 102 100 95 91 90 88 88 83 74 68 65 59 70 75 74 59 40 39 39 36 34 43 58 48 45 53 99 100 94 88 86 90 85 79 72 67 63 58 41 26 34 61 84 77 86 86 84 93 96 88 81 83 83 80 74 73 72 66 64 64 61 58 59 59 54 51 51 54 62
118 110 108 115 112 96 93 89 75 50 102 94 96 95 96 109 110 111 108 101 97 90 88 80 72 73 68 66 61 64 76 83 77 65 59 47 24 15 66 79 55 34 19 78 107 91 86 66 78 63 80 86 72 74 74 352 5 347 51 114 105 102 102 86 85 99 97 80 77 73 72 68 66 73 71 66 66 65 62 58 59 57 58 56 51
120 116 113 107 106 113 106 105 103 130 107 99 94 89 89 102 114 120 117 111 109 101 94 83 76 86 88 85 80 76 79 83 90 91 91 67 49 50 31 60 63 40 54 51 68 95 100 109 89 52 18 86 101 110 60 41 350 43 62 79 86 88 97 106 95 84 90 89 78 80 72 76 73 75 76 73 71 68 68 60 55 51 55 56 54
138 121 115 115 115 113 111 111 128 121 96 97 93 95 103 105 119 135 130 127 125 117 109 110 105 101 109 108 107 101 89 89 92 106 101 104 96 52 44 45 64 75 70 71 71 68 63 50 79 114 64 61 71 74 69 92 101 95 92 93 96 99 99 105 114 99 63 76 90 82 82 77 80 77 76 75 73 74 71 70 62 53 50 53 53